sat.trackr.live / text

‹ back to catalog

STARLINK-30164

NORAD 57500 · 2023-113F

PAYLOAD ACTIVE UNKNOWN

§ Identity

Operator
Country
US
Launch date
2023-08-07
Launch site
AFETR
Launch vehicle
Mass (kg)
RCS (m²)

Purposes: comms

External: N2YO · Heavens-Above · Gunter

§ Orbital elements

Epoch: 2026-05-24T18:56:24.535968Z

Period
94.27 min
Inclination
43.0038°
Eccentricity
0.0001032
Mean motion
15.27557502 rev/d
Perigee alt
482.4 km
Apogee alt
483.8 km
Semi-major
6,861.3 km
B*
1.8938e-4
RAAN
306.2981°
Arg perigee
276.5967°
Mean anomaly
83.4767°
Rev number
15,531

§ Raw data

STARLINK-301641 57500U 23113F   26144.78917287  .00004949  00000+0  18938-3 0  99902 57500  43.0038 306.2981 0001032 276.5967  83.4767 15.27557502155313

JSON: /api/v1/satellites/57500 · /tle

For live sub-satellite position, see the globe view (requires WebGL).

§ Visibility from observer

Set your observer location to see the next 7 days of passes ≥ 10°. The values pass through the URL so the page stays shareable.

No JS? Fill the form by hand. The geolocation button needs JavaScript.